STARLINK-6349, 57241

Orbit data source: Space-Track

STARLINK-6349, 57241 is a payload satellite owned by SpaceX/Seattle (US) in LEO that was launched on Fri, 07 Jul 2023 UTC via an FALCON 9 launch vehicle from the Air Force Western Test Range (AFWTR). Payload-class satellites include a variety of spacecraft equipped with specific instruments for various scientific and technological missions. These include communications satellites like Starlink; space stations such as the ISS; scientific satellites like the Hubble; Earth observation satellites from companies like Planet Labs, Umbra, and HawkEye 360; GPS; miniature CubeSats for education and research; and military/defense satellites.

Loading next visibility...
Identifier
57241, 2023-094Z
Orbit
LEO
Country
Flag of USUS
Related business
Manufacturer
SpaceX/Seattle
Mission
Operational Commercial Communications
Bus & Motor
STARLINK, Unknown motor
Mass
305 kg wet, ~290 kg dry
Launch date (UTC)
2023-07-07 (3 years ago)
Launch vehicle
FALCON 9
Launch site
Air Force Western Test Range (AFWTR)
Object type
Payload
Rocket body
Debris
Shape & HBR
Box + 1 Pan, 10.1 m
Radar Cross Section
11.087 m², Large (>1 m²)

Expand to show TLE details & history
Last TLE update: 20 hours ago

TLE from 20 hours ago
0 STARLINK-6349
1 57241U 23094Z   26167.32529908 -.00000164  00000-0  35788-5 0  9995
2 57241  43.0035 182.9715 0001283 270.9661  89.1044 15.27575908162323
Epoch: 2026-06-16T07:48Z
TLE epoch observation values (Epoch: 2026-06-16T07:48:25.840Z)
Latitude
Longitude
161.26488°
Altitude
482.824 km
Speed
7.626 km/s
True Right ascension
12h 11m 53s
True Declination
0° 00' 00"
Sunlit
Object was in daylight at epoch
Visualization orbit readout
Latitude
Unknown
Longitude
Unknown
Altitude
Unknown
Speed
Unknown
Apparent Right ascension
Unknown
Apparent Declination
Unknown
Sunlit
N/A
Visualization observer readout
Local Sidereal Time
14:32:30
Azimuth
Unknown
Elevation
Unknown
Doppler factor
Unknown
Orbital elements
Apogee altitude
485.886 km
Perigee altitude
484.125 km
Semi-major axis
6,863.143 km
Eccentricity
0.00013
Inclination
43.0035°
RAAN
182.9715°
Arg. of periapsis
270.9661°
True anomaly
89.1191°
Mean anomaly
89.1044°
Eccentric anomaly
89.11175°
Mean motion
3.81732 °/min
Orbital period
94.31 mins
BSTAR
0.0000035788
Loading maneuver chart data...
Computing Atmospheric mass density...
Loading historical data...
Loading historical data...
Loading historical data...
Loading historical data...
Loading historical data...
Loading historical data...
Loading historical data...

Documentation

Showing up to 5 results
|